Location: Oregon Trail
(41.1872°N, 102.0741°W)
Time: 19:48:08
(UTC+00:00)

Cosmos 1933 - Pass Details

Date: 19 November 2019
Orbit: 546 x 565 km, 82.5° (Epoch: 11 December)

Event Time Altitude Azimuth Distance (km) Brightness Sun altitude
Rises 12:50:56 0° 343° (NNW) 2,727 6.5 -9.6°
Reaches altitude 10° 12:53:13 10° 335° (NNW) 1,827 5.6 -9.1°
Maximum altitude 12:56:55 37° 268° (W) 870 3.9 -8.5°
Drops below altitude 10° 13:00:35 10° 201° (SSW) 1,811 6.0 -7.8°
Sets 13:02:50 0° 193° (SSW) 2,699 6.9 -7.4°
